Regional Weather Roundup
Issued by NWS Charleston, SC

Current Version | Previous Version | Graphics & Text | Print | Product List | Glossary On
Versions: 1 2 3 4 5 6 7 8 9 10 11 12 13 14 15 16 17 18 19 20 21 22 23 24 25 26 27 28 29 30 31 32 33 34 35 36 37 38 39 40 41 42 43 44 45 46 47 48 49 50
000 ASUS42 KCHS 071327 RWRCHS REGIONAL WEATHER ROUNDUP NATIONAL WEATHER SERVICE CHARLESTON SC 800 AM EST WED DEC 07 2016 NOTE: "FAIR" INDICATES FEW OR NO CLOUDS BELOW 12,000 FEET WITH NO SIGNIFICANT WEATHER AND/OR OBSTRUCTIONS TO VISIBILITY. NOT ALL STATIONS ARE QUALITY CONTROLLED. USE DATA WITH CAUTION... ESPECIALLY DEWPOINT OBSERVATIONS. SCZ027-030-031-034>040-042>050-071400- ...SOUTHEAST SOUTH CAROLINA... CITY SKY/WX TMP DP RH WIND PRES REMARKS N CHARLESTON CLOUDY 52 50 93 N5 30.04R WATERFRONT PRK N/A 52 51 97 N6 30.03R MOUNT PLEASANT CLOUDY 52 50 93 CALM 30.05R JOHNS ISLAND CLOUDY 54 52 94 CALM 30.05R PINOPOLIS N/A 50 50 100 N7 29.96R MONCKS CORNER CLOUDY 50 48 93 NE5 30.05R SUMMERVILLE CLOUDY N/A N/A N/A CALM 30.06R HAZE BEAUFORT MCAS CLOUDY 54 53 97 NW3 30.05R BEAUFORT ARPT CLOUDY 54 52 94 N3 30.05R FOG HILTON HEAD IS CLOUDY 55 54 94 N6 30.04 WALTERBORO CLOUDY 54 N/A N/A NE3 30.05R FOG ALLENDALE CLOUDY 54 54 100 CALM 30.03R FOG ...SOUTHERN MIDLANDS AND PEE DEE... CITY SKY/WX TMP DP RH WIND PRES REMARKS GEORGETOWN CLOUDY 48 46 93 N5 30.06S KINGSTREE CLOUDY 46 45 93 CALM 30.06R ORANGEBURG CLOUDY 50 49 96 NE3 30.04R FOG BARNWELL NOT AVBL AIKEN CLOUDY 46 46 100 NE7 30.06R MANNING CLOUDY 46 45 93 N3 30.05R COLUMBIA CLOUDY 50 47 89 CALM 30.04R FOG SUMTER CLOUDY 46 43 87 NE3 30.04R FLORENCE CLEAR 45 44 97 CALM 30.05R FOG MYRTLE BEACH MOCLDY 48 45 87 NW8 30.06R FOG N MYRTLE BEACH MOCLDY 46 45 96 CALM 30.04R $$ GAZ063-065-086>088-099>101-113>116-118-119-134>141-150-071400- ...SOUTHEAST GEORGIA... CITY SKY/WX TMP DP RH WIND PRES REMARKS SAVANNAH ARPT CLOUDY 54 53 97 CALM 30.05S FOG HUNTER AAF CLOUDY 55 55 100 CALM 30.02R FORT STEWART CLOUDY 55 53 93 CALM 30.02R STATESBORO NOT AVBL SYLVANIA FOG N/A N/A N/A CALM 30.06R VSB<1/4 CLAXTON CLOUDY N/A N/A N/A CALM 30.05R ...CSRA...CENTRAL AND FAR SOUTHEAST GEORGIA... CITY SKY/WX TMP DP RH WIND PRES REMARKS THOMSON CLOUDY 49 49 100 CALM 30.08R AUGUSTA-BUSH CLOUDY 52 49 89 CALM 30.03R FOG AUGUSTA-DANIEL CLOUDY 53 48 83 NE5 30.04R SWAINSBORO FAIR 52 50 93 CALM 30.05R VIDALIA CLEAR 54 54 100 CALM 30.05R EASTMAN CLOUDY 49 48 96 CALM 30.08R HAZLEHURST FAIR 53 53 100 CALM 30.05R ALMA PTCLDY 50 50 100 CALM 30.05R FOG WAYCROSS CLEAR 55 55 100 CALM 30.06R JESUP CLOUDY 57 57 100 CALM 30.05R BAXLEY CLOUDY 52 52 100 CALM 30.05R BRUNSWICK CLOUDY 57 57 100 CALM 30.06R SAINT SIMONS MOCLDY 58 55 90 CALM 30.04R $$ SCZ027-028-034-036>038-045-046-048>050-GAZ119-141-071400- ...LAKE AND SUPPLEMENTAL COASTAL OBSERVATIONS... STATION/POSITION TIME TEMP WIND PRES WAVE SWELL AIR SEA DIR/SP/G HT/PER HT/PER/DIR (UTC) (F) (DEG/KT/KT) (MB) (FT/S) (FT/S/D) WINYAH BAY 1230 49 340/ 4 1017.0R LAKE MURRAY 1220 48 CALM / 4 1016.6R ACE BASIN NERRS 1245 53 CALM 1017.0R FORT PULASKI 1300 56 62 360/ 5/ 6 1017.7 SAPELO ISLAND 1300 59 CALM 1017.0 $$ ANZ835-935-AMZ111-154-330-350-352-354-370-450-454-472-071400- ...C-MAN AND BUOY OBSERVATIONS... STATION/POSITION TIME TEMP WIND PRES WAVE SWELL AIR SEA DIR/SP/G HT/PER HT/PER/DIR (UTC) (F) (DEG/KT/KT) (MB) (FT/S) (FT/S/D) BUOY 41004 1250 58 74 360/ 8/ 10 1016.4R 3/ 8 2/160/ 8 BUOY 41008 1250 61 65 10/ 12/ 14 1016.7R 2/ 5 2/130/ 7 FOLLY BEACH CMAN 1300 52 350/ 6/ 7 1017.9R CAPERS NEARSHORE 1308 51 60 30/ 8/ 12 1017.5R FRIPP NEARSHORE 1308 54 61 310/ 4/ 10 1017.2R STATION/POSITION TIME TEMP WIND PRES WAVE SWELL AIR SEA DIR/SP/G HT/PER HT/PER/DIR (UTC) (F) (DEG/KT/KT) (MB) (FT/S) (FT/S/D) 5E ST. MARYS GA 1300 65 N/A 2/14 FRYING PAN BUOY 1300 56 73 340/ 17/ 23 1016.6 BUOY 41025 1250 54 74 330/ 21/ 25 1013.7R 6/ 5 3/100/10 CAPE LOOKOUT NC 1300 47 320/ 18/ 21 1015.3R BUOY 41002 1250 72 74 320/ 14/ 16 1013.8R 9/ 9 8/270/ 9 BUOY 41010 NOT AVBL ST AUGUSTINE FL 1300 59 67 270/ 5/ 6 1018.2R $$

USA.gov is the U.S. government's official web portal to all federal, state and local government web resources and services.